Viroqua, WI

2:08 PM CDT on April 26, 2017 (GMT -0500)
Viroqua

Weather History for KY51 - May, 2014

Change the Weather History Date:

Friday, May 16, 2014

  Actual Average (KCMY) Record (KCMY)
Temperature  
Mean Temperature 40 °F -  
Max Temperature 49 °F 72 °F 90 °F (1962)
Min Temperature 32 °F 45 °F 27 °F (2014)
Degree Days  
Heating Degree Days 24    
Moisture  
Dew Point 28 °F    
Average Humidity 57    
Maximum Humidity 83    
Minimum Humidity 39    
Precipitation  
Precipitation 0.00 in - - ()
Sea Level Pressure  
Sea Level Pressure 30.05 in    
Wind  
Wind Speed 6 mph (NNW)    
Max Wind Speed 12 mph    
Max Gust Speed -    
Visibility 10 miles    
Events      
Averages and records for this station are not official NWS values.
T = Trace of Precipitation, MM = Missing Value Source: NWS Daily Summary

Daily Weather History Graph

Daily Weather History Graph

Search for Another Location

Airport or City:

Trip Planner

Search our weather history database for the weather conditions in past years. The results will help you decide how hot, cold, wet, or windy it might be!

Date:

Astronomy

May. 16, 2014 Rise Set
Actual Time 5:37 AM CDT 8:22 PM CDT
Civil Twilight 5:04 AM CDT 8:56 PM CDT
Nautical Twilight 4:22 AM CDT 9:38 PM CDT
Astronomical Twilight 3:34 AM CDT 10:26 PM CDT
Moon 10:29 PM CDT (5/16) 7:19 AM CDT (5/16)
Length of Visible Light 15h 51m
Length of Day
14h 45m
Waning Gibbous, 95% of the Moon is Illuminated
May 16
Waning Gibbous
May 21
Last Quarter
May 28
New
Jun 5
First Quarter
Jun 12
Full

Hourly Weather History & Observations

Time (CDT) Temp. Windchill Dew Point Humidity Pressure Visibility Wind Dir Wind Speed Gust Speed Precip Events Conditions
12:13 AM 41.4 °F 36.2 °F 29.8 °F 64% 30.06 in 10.0 mi NE 8.1 mph - N/A   Overcast
12:33 AM 41.0 °F 35.2 °F 28.9 °F 62% 30.06 in 10.0 mi NNE 9.2 mph - N/A   Overcast
12:53 AM 40.8 °F 35.6 °F 29.3 °F 64% 30.05 in 10.0 mi NNE 8.1 mph - N/A   Overcast
1:13 AM 40.5 °F 34.6 °F 28.9 °F 64% 30.05 in 10.0 mi NNE 9.2 mph - N/A   Overcast
1:33 AM 40.1 °F 34.1 °F 28.4 °F 63% 30.05 in 10.0 mi NNE 9.2 mph - N/A   Overcast
1:53 AM 39.4 °F 33.8 °F 29.1 °F 67% 30.05 in 10.0 mi North 8.1 mph - N/A   Overcast
2:13 AM 38.7 °F 33.6 °F 29.1 °F 69% 30.04 in 10.0 mi North 6.9 mph - N/A   Overcast
2:33 AM 38.3 °F 32.5 °F 29.1 °F 70% 30.04 in 10.0 mi North 8.1 mph - N/A   Overcast
2:53 AM 37.4 °F 32.8 °F 29.3 °F 73% 30.04 in 10.0 mi North 5.8 mph - N/A   Overcast
3:13 AM 36.1 °F 32.3 °F 28.9 °F 75% 30.04 in 10.0 mi NNE 4.6 mph - N/A   Overcast
3:33 AM 34.7 °F 30.6 °F 28.8 °F 79% 30.04 in 10.0 mi NNE 4.6 mph - N/A   Overcast
3:53 AM 34.7 °F 29.6 °F 27.9 °F 76% 30.04 in 10.0 mi NNE 5.8 mph - N/A   Scattered Clouds
4:13 AM 33.8 °F 28.6 °F 27.5 °F 78% 30.03 in 10.0 mi North 5.8 mph - N/A   Clear
4:33 AM 32.9 °F 27.5 °F 27.5 °F 81% 30.03 in 10.0 mi North 5.8 mph - N/A   Clear
4:53 AM 33.8 °F 30.8 °F 27.1 °F 77% 30.03 in 10.0 mi North 3.5 mph - N/A   Clear
5:13 AM 32.7 °F 29.6 °F 27.3 °F 81% 30.03 in 10.0 mi North 3.5 mph - N/A   Clear
5:33 AM 32.2 °F 28.9 °F 27.5 °F 83% 30.03 in 10.0 mi NNE 3.5 mph - N/A   Clear
5:53 AM 32.9 °F 29.8 °F 27.5 °F 81% 30.03 in 10.0 mi NNE 3.5 mph - N/A   Clear
6:13 AM 33.4 °F 29.1 °F 27.9 °F 80% 30.04 in 10.0 mi North 4.6 mph - N/A   Clear
6:33 AM 34.5 °F 31.6 °F 28.4 °F 78% 30.04 in 10.0 mi North 3.5 mph - N/A   Clear
6:53 AM 36.1 °F 32.3 °F 29.1 °F 76% 30.04 in 10.0 mi North 4.6 mph - N/A   Clear
7:33 AM 38.8 °F 33.2 °F 29.5 °F 69% 30.05 in 10.0 mi NNE 8.1 mph - N/A   Clear
7:53 AM 40.6 °F 36.0 °F 29.5 °F 64% 30.05 in 10.0 mi NNE 6.9 mph - N/A   Scattered Clouds
8:13 AM 42.3 °F 37.3 °F 28.6 °F 58% 30.05 in 10.0 mi NNE 8.1 mph - N/A   Mostly Cloudy
8:33 AM 43.3 °F 39.2 °F 26.6 °F 52% 30.05 in 10.0 mi North 6.9 mph - N/A   Scattered Clouds
8:53 AM 43.9 °F 39.9 °F 25.7 °F 49% 30.05 in 10.0 mi North 6.9 mph - N/A   Clear
9:13 AM 44.6 °F 41.4 °F 25.5 °F 47% 30.06 in 10.0 mi NNE 5.8 mph - N/A   Clear
9:33 AM 45.0 °F 41.2 °F 25.2 °F 46% 30.05 in 10.0 mi NNE 6.9 mph - N/A   Clear
9:53 AM 45.5 °F 40.8 °F 26.1 °F 47% 30.05 in 10.0 mi North 9.2 mph - N/A   Clear
10:13 AM 46.2 °F 42.7 °F 24.8 °F 43% 30.05 in 10.0 mi NNE 6.9 mph - N/A   Scattered Clouds
10:33 AM 46.2 °F 41.7 °F 24.3 °F 42% 30.05 in 10.0 mi NNW 9.2 mph - N/A   Mostly Cloudy
10:53 AM 45.9 °F 42.9 °F 24.4 °F 43% 30.05 in 10.0 mi North 5.8 mph - N/A   Overcast
11:13 AM 45.5 °F 41.8 °F 24.4 °F 44% 30.05 in 10.0 mi North 6.9 mph - N/A   Overcast
11:33 AM 45.7 °F 42.0 °F 24.6 °F 44% 30.05 in 10.0 mi NNW 6.9 mph - N/A   Overcast
11:53 AM 45.9 °F 42.9 °F 25.3 °F 45% 30.05 in 10.0 mi North 5.8 mph - N/A   Overcast
12:13 PM 46.9 °F - 24.6 °F 42% 30.05 in 10.0 mi WNW 5.8 mph - N/A   Overcast
12:33 PM 46.6 °F - 26.8 °F 46% 30.05 in 10.0 mi NW 11.5 mph - N/A   Overcast
12:53 PM 46.2 °F 45.0 °F 28.0 °F 49% 30.05 in 10.0 mi North 3.5 mph - N/A   Overcast
1:13 PM 46.6 °F - 25.5 °F 44% 30.04 in 10.0 mi Calm Calm - N/A   Overcast
1:33 PM 47.1 °F - 25.5 °F 43% 30.04 in 10.0 mi North 3.5 mph - N/A   Overcast
1:53 PM 47.3 °F - 24.8 °F 41% 30.04 in 10.0 mi Calm Calm - N/A   Overcast
2:13 PM 48.0 °F - 25.9 °F 42% 30.04 in 10.0 mi WNW 5.8 mph - N/A   Overcast
2:33 PM 48.6 °F - 25.2 °F 40% 30.04 in 10.0 mi NW 6.9 mph - N/A   Overcast
2:53 PM 48.4 °F - 25.9 °F 42% 30.04 in 10.0 mi North 3.5 mph - N/A   Overcast
3:13 PM 48.0 °F - 25.5 °F 41% 30.04 in 10.0 mi NW 4.6 mph - N/A   Overcast
3:33 PM 48.4 °F - 24.8 °F 40% 30.03 in 10.0 mi WNW 3.5 mph - N/A   Overcast
3:53 PM 48.9 °F - 25.9 °F 41% 30.03 in 10.0 mi WNW 6.9 mph - N/A   Mostly Cloudy
4:13 PM 49.3 °F - 25.3 °F 39% 30.03 in 10.0 mi NW 5.8 mph - N/A   Mostly Cloudy
4:33 PM 48.2 °F - 27.0 °F 44% 30.03 in 10.0 mi NW 8.1 mph - N/A   Overcast
4:53 PM 47.8 °F - 27.0 °F 44% 30.04 in 10.0 mi WNW 6.9 mph - N/A   Overcast
5:13 PM 48.2 °F - 27.5 °F 45% 30.04 in 10.0 mi WNW 9.2 mph - N/A   Mostly Cloudy
5:33 PM 48.2 °F - 27.1 °F 44% 30.04 in 10.0 mi WNW 8.1 mph - N/A   Scattered Clouds
5:53 PM 47.5 °F - 29.3 °F 49% 30.04 in 10.0 mi NW 11.5 mph - N/A   Mostly Cloudy
6:13 PM 47.5 °F - 28.6 °F 48% 30.04 in 10.0 mi WNW 10.4 mph - N/A   Mostly Cloudy
6:53 PM 47.5 °F - 29.3 °F 49% 30.04 in 7.0 mi WNW 8.1 mph - N/A   Overcast
7:13 PM 47.3 °F - 28.9 °F 49% 30.04 in 10.0 mi WNW 3.5 mph - N/A   Mostly Cloudy
7:33 PM 46.8 °F - 29.3 °F 51% 30.05 in 10.0 mi NNW 5.8 mph - N/A   Overcast
7:53 PM 45.5 °F 43.2 °F 29.8 °F 54% 30.05 in 10.0 mi NNW 4.6 mph - N/A   Overcast
8:13 PM 45.5 °F 43.2 °F 29.3 °F 53% 30.05 in 10.0 mi WNW 4.6 mph - N/A   Overcast
8:33 PM 43.7 °F - 30.7 °F 60% 30.06 in 10.0 mi Calm Calm - N/A   Overcast
8:53 PM 44.1 °F - 29.3 °F 56% 30.06 in 10.0 mi Calm Calm - N/A   Mostly Cloudy
9:13 PM 43.7 °F - 29.5 °F 57% 30.06 in 10.0 mi Calm Calm - N/A   Mostly Cloudy
9:33 PM 43.9 °F 42.3 °F 29.1 °F 56% 30.07 in 10.0 mi West 3.5 mph - N/A   Overcast
9:53 PM 43.7 °F 41.1 °F 29.3 °F 57% 30.07 in 10.0 mi WSW 4.6 mph - N/A   Overcast
10:13 PM 43.0 °F 41.3 °F 29.5 °F 59% 30.07 in 10.0 mi West 3.5 mph - N/A   Overcast
10:53 PM 41.5 °F 39.6 °F 29.8 °F 63% 30.07 in 10.0 mi SW 3.5 mph - N/A   Scattered Clouds
11:13 PM 41.0 °F 38.0 °F 30.0 °F 65% 30.07 in 10.0 mi SW 4.6 mph - N/A   Clear
11:33 PM 40.1 °F 36.9 °F 30.0 °F 67% 30.07 in 10.0 mi SW 4.6 mph - N/A   Clear
11:53 PM 39.6 °F 36.3 °F 29.8 °F 68% 30.07 in 10.0 mi SW 4.6 mph - N/A   Scattered Clouds